Regional Weather Roundup
Issued by NWS

Home | Current Version | Previous Version | Graphics & Text | Print | Product List | Glossary On
Versions: 1 2 3 4 5 6 7 8 9 10 11 12 13 14 15 16 17 18 19 20 21 22 23 24 25 26 27 28 29 30 31 32 33 34 35 36 37 38 39 40 41 42 43 44 45 46 47 48 49 50
000
ASUS44 KMEG 240010
RWRTN
TENNESSEE HOURLY STATE WEATHER ROUNDUP
NATIONAL WEATHER SERVICE MEMPHIS TN
700 PM CDT TUE MAY 23 2017

TNZ002-004-019-021-049-052-054-088>092-240100-
WEST TENNESSEE

CITY           SKY/WX    TMP DP  RH WIND       PRES   REMARKS
MEMPHIS INTL   MOSUNNY   72  58  61 W9        29.66F
NWS MEMPHIS      N/A     72 N/A N/A MISG        N/A
JACKSON        SUNNY     75  51  43 W6        29.65F
DYERSBURG        N/A    N/A N/A N/A MISG        N/A
COVINGTON      MOSUNNY   73  55  53 NW9       29.66R
UNION CITY     CLOUDY    73  54  49 NW3       29.64S
BOLIVAR        SUNNY     73  55  53 W5G12     29.65F
PARIS          CLOUDY    73  55  53 W6        29.64S
HUNTINGDON     PTSUNNY   73  55  53 CALM      29.64S
LEXINGTON      CLEAR     73  55  53 MISG      29.64F
SELMER         PTSUNNY   73  61  64 W5        29.65S
SAVANNAH       PTCLDY    75  57  53 CALM      29.64S
$$

TNZ008-025-027-028-033-062-065-066-240100-
NORTH MIDDLE TENNESSEE

CITY           SKY/WX    TMP DP  RH WIND       PRES   REMARKS
NASHVILLE      MOCLDY    74  53  48 W6        29.65S
PORTLAND       PTCLDY    73  54  49 W5        29.64F
CLARKSVILLE    CLEAR     73  52  47 N7        29.64F
COOKEVILLE     MOCLDY    70  64  83 CALM      29.65S
GALLATIN       CLEAR     73  55  53 NW3       29.67S
CROSSVILLE     CLOUDY    66  61  84 NE5       29.68S
$$

TNZ061-075-076-078-094-096-097-240100-
SOUTH MIDDLE TENNESSEE

CITY           SKY/WX    TMP DP  RH WIND       PRES   REMARKS
FAYETTEVILLE   CLOUDY    73  61  64 NW3       29.66R
TULLAHOMA      PTCLDY    72  61  68 W3        29.68R
WINCHESTER     CLOUDY    72  64  78 CALM        N/A
MCMINNVILLE    CLOUDY    70  63  78 N7        29.67R
COLUMBIA       CLEAR     73  57  56 NW5       29.63S
SHELBYVILLE    CLOUDY    73  59  60 NW6       29.66R
$$

TNZ017-018-042-046-047-240100-
NORTHEAST TENNESSEE

CITY           SKY/WX    TMP DP  RH WIND       PRES   REMARKS
TRI CITIES     LGT RAIN  64  63  96 SE3       29.69S FOG
ELIZABETHTON   CLOUDY    64  63  94 CALM      29.69R
$$

TNZ012-013-036-069-073-074-240100-
CENTRAL EAST TENNESSEE

CITY           SKY/WX    TMP DP  RH WIND       PRES   REMARKS
KNOXVILLE      CLOUDY    71  63  75 W3        29.65S
OAK RIDGE      MOCLDY    70  62  76 CALM      29.67S
DOWNTOWN KNOXV CLOUDY    70  68  94 CALM      29.66R
GATLINBURG     MOCLDY    66  64  94 CALM      29.66R
MORRISTOWN     CLOUDY    66  64  94 S3        29.66S
JACKSBORO      MOCLDY    66  64  94 CALM      29.70R
$$

TNZ083-085-099-240100-
SOUTHEAST TENNESSEE

CITY           SKY/WX    TMP DP  RH WIND       PRES   REMARKS
CHATTANOOGA    LGT RAIN  70  67  90 SW7       29.66R
$$

SKY/WX REPORTED AS FAIR MEANS FEW OR NO CLOUDS BELOW
12 THOUSAND FEET.




USA.gov is the U.S. government's official web portal to all federal, state and local government web resources and services.